sat.trackr.live / text

‹ back to catalog

ICEYE-X62

NORAD 66755 · 2025-276CT

PAYLOAD ACTIVE UNKNOWN

§ Identity

Operator
Country
POL
Launch date
2025-11-28
Launch site
AFWTR
Launch vehicle
Mass (kg)
RCS (m²)

External: N2YO · Heavens-Above · Gunter

§ Orbital elements

Epoch: 2026-09-20T22:27:06.279840Z

Period
95.34 min
Inclination
97.4116°
Eccentricity
0.0003602
Mean motion
15.10446370 rev/d
Perigee alt
532.3 km
Apogee alt
537.3 km
Semi-major
6,913.0 km
B*
8.5200e-5
RAAN
333.1282°
Arg perigee
58.2146°
Mean anomaly
301.9434°
Rev number
4,478

§ Raw data

ICEYE-X621 66755U 25276CT  26263.93548935  .00001340  00000+0  85200-4 0  99922 66755  97.4116 333.1282 0003602  58.2146 301.9434 15.10446370 44786

JSON: /api/v1/satellites/66755 · /tle

For live sub-satellite position, see the globe view (requires WebGL).

§ Visibility from observer

Set your observer location to see the next 7 days of passes ≥ 10°. The values pass through the URL so the page stays shareable.

No JS? Fill the form by hand. The geolocation button needs JavaScript.

§ Radio — SatNOGS DB

ModeDescriptionDownlinkUplink
FM S-band telemetry 2.270 GHz

1 transmitter · refreshed weekly from db.satnogs.org